Skip Page Navigation
NASA JPL Caltech
NASA Logo - Jet Propulsion Laboratory + View the NASA Portal
+ Center for Near-Earth Object Studies
JPL Home Earth Solar System Stars & Galaxies Technology
JPL Solar System Dynamics
BODIES ORBITS EPHEMERIDES TOOLS PHYSICAL DATA DISCOVERY FAQ SITE MAP
IMPORTANT: The SSD Announcement email list is now available. Major changes are coming in the near future, including possible hostname and/or URL changes. To be notified of such changes, subscribe to this email list.

Please visit this page for more details.


JPL Small-Body Database Browser
Search: [ help ]  
4583 Lugo (1989 RL4)
Classification: Main-belt Asteroid          SPK-ID: 2004583
Ephemeris | Orbit Diagram | Orbital Elements | Mission Design | Physical Parameters | Discovery Circumstances | Close-Approach Data ]

[ show orbit diagram ]
Orbital Elements at Epoch 2458600.5 (2019-Apr-27.0) TDB
Reference: JPL 31 (heliocentric ecliptic J2000)
 Element Value Uncertainty (1-sigma)   Units 
e .1920493325721589 3.1522e-08  
a 2.352882371651821 7.3301e-09 au
q 1.90101288255529 7.3904e-08 au
i 3.744609074818388 3.8791e-06 deg
node 164.4736470677043 4.9554e-05 deg
peri 142.2711060428906 5.037e-05 deg
M 109.5399444655436 9.4038e-06 deg
tp 2458199.385126239407
(2018-Mar-21.88512624)
3.3942e-05 TDB
period 1318.252946524324
3.61
6.1602e-06
1.687e-08
d
yr
n .2730887125639794 1.2762e-09 deg/d
Q 2.804751860748352 8.7378e-09 au
  Orbit Determination Parameters
   # obs. used (total)      2359  
   data-arc span      24160 days (66.15 yr)  
   first obs. used      1953-10-14  
   last obs. used      2019-12-07  
   planetary ephem.      DE431  
   SB-pert. ephem.      SB431-N16  
   condition code      0  
   norm. resid. RMS      .48513  
   source      ORB  
   producer      Otto Matic  
   solution date      2019-Dec-13 21:46:57  

Additional Information
 Earth MOID = .887109 au 
 Jupiter MOID = 2.45023 au 
 T_jup = 3.529 
[ show covariance matrix ]

Ephemeris | Orbit Diagram | Orbital Elements | Mission Design | Physical Parameters | Discovery Circumstances | Close-Approach Data ]

Physical Parameter Table
Parameter Symbol Value Units Sigma Reference Notes
absolute magnitude H 13.3   n/a MPO458876  
diameter diameter 13.761 km 0.071 urn:nasa:pds:neowise_diameters_albedos::2.0[mainbelt] (http://adsabs.harvard.edu/abs/2011ApJ...741...68M)  
geometric albedo albedo 0.053   0.002 urn:nasa:pds:neowise_diameters_albedos::2.0[mainbelt] (http://adsabs.harvard.edu/abs/2011ApJ...741...68M)  

4583 Lugo           Discovered 1989 Sept. 1 at Smolyan.
Raymond Lugo (b. 1957) helped further the exploration of the planets through his dedication and hard work as deputy launch services manager on NASA's New Horizons Pluto-Kuiper Belt mission.
NOTE: some special characters may not display properly (any characters within {} are an attempt to place the proper accent above a character)
Reference: 20051215/MPCPages.arcLast Updated: 2006-03-22

[ show close-approach data ]
Alternate Designations
 1989 RL4 = 1953 TR2 = 1964 VK = 1971 SH1 = 1974 HD1 = 1975 VM1 = 1982 UA1 = 1989 TY16 
Ephemeris | Orbit Diagram | Orbital Elements | Mission Design | Physical Parameters | Discovery Circumstances | Close-Approach Data ]
ABOUT SSD CREDITS/AWARDS PRIVACY/COPYRIGHT GLOSSARY LINKS
FirstGov 2019-Dec-15 18:32 UT
(server date/time)  
NASA Home Page
Site Manager:   Ryan S. Park
Webmaster  Alan B. Chamberlin